Regional Weather Roundup
Issued by NWS Spokane, WA

Home | Current Version | Previous Version | Text Only | Print | Product List | Glossary On
Versions: 1 2 3 4 5 6 7 8 9 10 11 12 13 14 15 16 17 18 19 20 21 22 23 24 25 26 27 28 29 30 31 32 33 34 35 36 37 38 39 40 41 42 43 44 45 46 47 48 49 50
000
NZUS01 KOTX 230110
RWROTX
EASTERN WASHINGTON/NORTHERN IDAHO ROUNDUP
NATIONAL WEATHER SERVICE, SPOKANE WA
500 PM PST MON DEC 22 2014

Note: "fair" indicated few or no clouds below 12,000 feet with no
significant weather and/or obstructions to visibility.

...NORTHEAST WASHINGTON AND NORTHERN IDAHO PANHANDLE...

CITY           SKY/WX    TMP DP  RH WIND       PRES   REMARKS
SPOKANE INTL   PTCLDY    35  27  72 W6        30.25R
SPOKANE DOWNTO PTCLDY    38  29  70 CALM      30.27R
COEUR D ALENE  CLEAR     36  27  69 W9        30.24S
DEER PARK      PTCLDY    36  23  59 W7        30.26R
SANDPOINT      CLEAR     36  28  75 SW5       30.22R

...SOUTHEAST WASHINGTON AND SOUTHERN IDAHO PANHANDLE...

CITY           SKY/WX    TMP DP  RH WIND       PRES   REMARKS
WALLA WALLA    MOCLDY    45  34  65 SE6       30.32F
PULLMAN/MOSCOW PTCLDY    37  29  72 W9        30.28S
LEWISTON       PTCLDY    43  31  62 SW7       30.30R
LOWELL           N/A     38  37  97 N5        30.33R

...COLUMBIA BASIN...

CITY           SKY/WX    TMP DP  RH WIND       PRES   REMARKS
EPHRATA        PTCLDY    44  28  53 W8        30.29R
MOSES LAKE     PTCLDY    40  30  67 NW7       30.31R
TRI CITIES     MOCLDY    47  33  58 CALM      30.33F
HERMISTON      PTCLDY    44  35  70 CALM      30.33S
PENDLETON      PTCLDY    45  36  70 W5        30.32S

...EAST SLOPES CASCADES...

CITY           SKY/WX    TMP DP  RH WIND       PRES   REMARKS
THE DALLES     CLOUDY    52  39  61 NW10      30.33S
YAKIMA         MOCLDY    47  30  51 S3        30.31R
ELLENSBURG     MOCLDY    44  31  60 NW9       30.30R
WENATCHEE      PTCLDY    46  28  49 NW7       30.31R
OMAK           CLEAR     37  29  72 W6        30.31R

...SOUTHERN BRITISH COLUMBIA...

CITY           SKY/WX    TMP DP  RH WIND       PRES   REMARKS
PENTICTON      PTCLDY    36  28  75 VRB3      30.31R
CASTLEGAR      PTCLDY    32  32 100 S3        30.29R FOG

...WESTERN MONTANA...

CITY           SKY/WX    TMP DP  RH WIND       PRES   REMARKS
MISSOULA       CLOUDY    36  24  62 NW8       30.18R

...NEIGHBORING CITIES...

CITY           SKY/WX    TMP DP  RH WIND       PRES   REMARKS
SEATTLE        MOCLDY    47  41  80 CALM      30.37F
CALGARY        MOCLDY    34  21  60 E2        30.04R



USA.gov is the U.S. government's official web portal to all federal, state and local government web resources and services.